Regional Weather Roundup
Issued by NWS Wakefield, VA

Home | Current Version | Previous Version | Graphics & Text | Print | Product List | Glossary On
Versions: 1 2 3 4 5 6 7 8 9 10 11 12 13 14 15 16 17 18 19 20 21 22 23 24 25 26 27 28 29 30 31 32 33 34 35 36 37 38 39 40 41 42 43 44 45 46 47 48 49
000
ASUS41 KAKQ 010610
RWRAKQ

REGIONAL WEATHER ROUNDUP
NATIONAL WEATHER SERVICE WAKEFIELD VA
100 AM EST SUN MAR 01 2015

Note: "fair" indicates few or no clouds below 12,000 feet with no
significant weather and/or obstructions to visibility. * = Denotes
station may not report precipitation (e.g., rain,snow,etc.),
thunder or fog.

VAZ042-051-052>054-056-010700-
NORTHERN VIRGINIA

CITY           SKY/WX    TMP DP  RH WIND       PRES   REMARKS
WASH NATIONAL  MOCLDY    26  11  52 CALM      30.73F
DULLES         PTCLDY    21   9  59 S5        30.70S
FORT BELVOIR   PTCLDY    20  13  75 CALM      30.73S
QUANTICO       MOCLDY    26  12  55 S10       30.75S WCI  16
FREDERICKSBRG* CLOUDY    25  13  61 CALM      30.72F
STAFFORD*      CLOUDY    21  12  68 CALM      30.76S
WARRENTON      CLOUDY    19  18  96 CALM      30.69F
CULPEPER*      CLOUDY    19  16  86 CALM      30.70F
MANASSAS*      PTCLDY    16  10  79 CALM      30.72R
LEESBURG*      PTCLDY    19  12  73 SW3       30.71R
WINCHESTER     PTCLDY    19   5  53 CALM      30.64S
FRONT ROYAL*   MOCLDY    18   9  68 W3        30.64R
LURAY*         CLOUDY    23  18  80 S5        30.64R
$$

VAZ048-049-060>072-079>083-010700-
CENTRAL AND SOUTH CENTRAL VIRGINIA

CITY           SKY/WX    TMP DP  RH WIND       PRES   REMARKS
RICHMOND       MOCLDY    24  12  60 CALM      30.71F
CHESTERFIELD*  FAIR      25   9  50 CALM      30.72F
PETERSBURG*    CLEAR     21  18  86 CALM      30.72F
HANOVER        CLEAR     23  13  65 CALM      30.73F
TAPPAHANNOCK*  CLEAR     19  12  72 CALM      30.73F
QUINTON*       FAIR      22  14  72 CALM      30.72F
CHARLOTTSVILLE CLEAR     22  10  60 W3        30.68F
GORDONSVILLE*  FAIR      20  13  77 CALM      30.69F
ORANGE*        PTCLDY    23  14  68 CALM      30.71F
LOUISA*        CLEAR     25  12  58 CALM      30.67F
BUMPASS*       FAIR      24  13  61 CALM      30.70F
FARMVILLE*     CLEAR     23  11  60 CALM      30.69S
CREWE*         FAIR      24  16  72 CALM      30.69F
FORT PICKETT*  FAIR      24  15  68 CALM      30.69F
CHASE CITY*    FAIR      27  16  63 E3        30.67F
CLARKSVILLE*   FAIR      28  16  59 E3        30.67F
SOUTH HILL*    FAIR      23  14  69 CALM      30.75S
LAWRENCEVILLE* FAIR      24  16  69 CALM      30.69F
EMPORIA*       CLEAR     23  18  80 CALM      30.72F
$$

VAZ088>098-010700-
SOUTHEAST VIRGINIA

CITY           SKY/WX    TMP DP  RH WIND       PRES   REMARKS
NORFOLK        CLEAR     29  20  69 NE8       30.71F
VIRGINIA BEACH CLEAR     28  18  66 NE7       30.70F
NORFOLK NAVAL  CLEAR     29  19  66 NE7       30.72F
WEST POINT*    CLEAR     20  15  79 CALM      30.75F
SALUDA*        FAIR      17  14  87 S5        30.73F
NEWPORT NEWS   CLEAR     21  16  81 CALM      30.72F
LANGLEY AFB    CLEAR     23  17  78 NE7       30.72F
FORT EUSTIS    CLEAR     22  20  94 CALM      30.70F
WILLIAMSBURG*  CLEAR     25  19  80 CALM      30.73F
HR EXEC AP*    FAIR      18  14  86 CALM      30.73F
FRANKLIN*      CLEAR     22  19  87 CALM      30.72F
WAKEFIELD      CLEAR     21  16  81 N3        30.72F
$$

VAZ020-022-025-037-045-010700-
WEST CENTRAL AND SOUTHWEST VIRGINIA

CITY           SKY/WX    TMP DP  RH WIND       PRES   REMARKS
STAUNTON*      CLEAR     25   9  51 S6        30.65R
WAYNESBORO*    FAIR      22   8  56 S3        30.61S
HOT SPRINGS VA MOCLDY    19  10  68 S10       30.44S WCI   7
LYNCHBURG      CLEAR     22  12  65 CALM      30.67F
DANVILLE       MOCLDY    27  14  58 CALM      30.67F
SOUTH BOSTON*  FAIR      25  13  62 CALM      30.68F
MARTINSVILLE   MOCLDY    26  21  80 CALM      30.67F
ROANOKE        PTCLDY    26  13  57 SE6       30.65F
BLACKSBURG     CLOUDY    25  12  59 SE3       30.60F
DUBLIN*        CLOUDY    27  18  69 E3        30.57F
MARION*        PTCLDY    29  18  63 NE12      30.51F WCI  20
HILLSVILLE*    MOCLDY    25  15  66 S5        30.52F
RICHLANDS*     FAIR      33  17  51 SE8       30.41F
WISE*          MOCLDY    37  19  48 S14G20    30.41F
ABINGDON*      MOCLDY    36  22  57 E9        30.46F
$$

MDZ021>025-VAZ099-100-010700-
SOUTHERN MARYLAND AND THE DELMARVA PENINSULA

CITY           SKY/WX    TMP DP  RH WIND       PRES   REMARKS
PATUXENT RIVER MOCLDY    20  13  74 S5        30.73F
BAY BRIDGE APT   N/A     21  14  73 CALM      30.73F
LEONARDTOWN      N/A     19  12  73 MISG        N/A
DOVER          CLEAR     18  12  75 S2        30.73F
GEORGETOWN     CLEAR     14   9  80 CALM      30.74F
EASTON         CLEAR     21  15  77 CALM      30.76F
CAMBRIDGE      CLEAR     21  14  73 CALM      30.72F
SALISBURY      CLEAR     17  10  74 CALM      30.73F
OCEAN CITY     CLEAR     14  10  84 CALM      30.74F
WALLOPS ISLAND CLEAR     16  13  88 CALM      30.74F
ACCOMACK*      CLEAR     19  14  79 CALM      30.73F
$$

NCZ012>017-030>032-010700-
NORTH CENTRAL AND EASTERN NORTH CAROLINA

CITY           SKY/WX    TMP DP  RH WIND       PRES   REMARKS
ROANOKE RAPIDS FAIR      27  18  69 N3        30.70S
RALEIGH        CLOUDY    30  16  56 E6        30.66F
ELIZABETH CITY CLEAR     28  21  75 N9        30.69F
AHOSKIE*       CLEAR     26  18  72 N5        30.70F
EDENTON*       PTCLDY    28  21  74 N6        30.69S
CURRITUCK*     CLEAR     30  22  72 NE7       30.70F
KILL DEVIL HLS CLEAR     34  29  83 N8        30.65F
MANTEO         MOCLDY    34  28  80 N14       30.66F WCI  24
CAPE HATTERAS  CLEAR     36  33  89 NE12G20   30.63F
TARBORO*       MOCLDY    29  20  67 CALM      30.69F
GOLDSBORO      CLOUDY    32  27  81 NE8       30.63F
WASHINGTON     MOCLDY    30  20  68 NE5       30.68S
GREENVILLE     CLOUDY    32  21  64 NE6       30.66F
NEW BERN       PTCLDY    32  23  69 N7        30.66F
WILMINGTON     CLOUDY    38  25  59 NE12      30.61F
$$

VAZ048-010700-
ELSEWHERE

CITY           SKY/WX    TMP DP  RH WIND       PRES   REMARKS
HARRISBURG PA  CLEAR     17   6  62 E6        30.70R
BALTIMORE      PTCLDY    16   8  71 CALM      30.71F
ANNAPOLIS      CLEAR     19  14  81 NW3       30.73F
ANDREWS AFB    MOCLDY    21   8  59 S2        30.70F
PHILADELPHIA   FAIR      23   7  50 CALM      30.73F
HENDERSON NC   MOCLDY    26  15  62 CALM      30.67F
GREENSBORO     CLOUDY    30  15  53 NE5       30.63F
ROCKY MOUNT    MOCLDY    30  18  60 NE7       30.68F
$$

VAZ100-010700-
MARINE

STATION/POSITION TIME  TEMP    WIND        PRES    WAVE   SWELL
                       AIR SEA DIR/SP/G            HT/PER HT/PER
                 (UTC) (F)     (DEG/KT/KT) (MB)    (FT/S) (FT/S)
BRANDYWINE LGT   0600   25 29  220/  7/  8 1041.1S
CAPE MAY NJ      0600   21 32   CALM  /  1 1040.6F
LEWES DE         0600   23 30  220/  4/  4 1041.0R
15NM E FENWICK I 0600   28 33              1040.9F   3/ 9
OCEAN-CITY-INLET 0600   24 32   20/  1/  2 1040.5F
WACHAPREAGUE VA  0600   22 34   10/  3/  4 1040.3F
THOMAS POINT MD  0600   27 31  160/  7/  7 1041.5F
COVE POINT MD    0600   26     180/  9/ 11 1040.3F
SOLOMONS ISLAND  0600      32                N/A
BISHOPS HEAD MD  0600   26 31  130/  9/ 10 1040.1F
CAMBRIDGE MD     0600   22 32  170/  4/  5 1040.4F
LEWISETTA VA     0600   23 33     CALM     1040.5F
RAPPAHANNOCK LGT 0600           40/  6/  7 1040.9F
STINGRAY PT      0600   28     100/  6/  8   N/A
YORK RVR RNG VA  0600   29      80/  8/  9 1039.8F
YORKTOWN VA      0600   29 33   80/  7/  9 1040.3F
DOMINION TERM VA 0600   27      40/  4/  6 1040.4F
KIPTOPEKE VA     0600      37   30/  4/  4   N/A
CHES BAY BRIDGE  0600   30 33   40/ 11/ 12 1039.5F
CAPE HENRY VA    0600   30      40/ 12/ 13 1038.4F
CHESAPEAKE LGHT  0500   31      40/ 13/ 13 1041.0F
WILLOUBY STN VA  0600   29      50/ 10/ 11 1040.6S
S CRANEY ISL VA  0600           40/  5/  7 1040.3R
CAPE HENRY BUOY  0600      35                N/A     3/ 9
1ST LANDING BUOY 0600   31      50/ 12/ 14 1039.6F
OFFSHORE WE BUOY 0600      36                N/A     3/10   3/10
64NM E OF VA BCH 0600   45 64   50/ 12/ 17 1038.2F   4/10   3/10
DUCK PIER NC     0600   34 34   20/ 14/ 17 1038.0F
44100 DUCK FRF   0500      37                N/A     5/10
44056 DUCK FRF   0600      34                N/A     4/ 5
OREGON INLET NC  0600   35 38  360/ 11/ 15 1038.1F
HATTERAS NC      0600   37 39   30/ 15/ 19 1037.4F
CAPE LOOKOUT NC  0500   36      20/ 16/ 20 1037.1F
$$



USA.gov is the U.S. government's official web portal to all federal, state and local government web resources and services.